Alpena, MI

12:54 PM EST on January 20, 2018 (GMT -0500)
Alpena County Regional

Weather History for KAPN - March, 2014

Change the Weather History Date:

Thursday, March 27, 2014

  Actual Average Record
Temperature  
Mean Temperature 30 °F 33 °F  
Max Temperature 36 °F 43 °F 75 °F (1945)
Min Temperature 24 °F 24 °F 3 °F (1996)
Degree Days  
Heating Degree Days 35 32  
Month to date heating degree days 1264 1000  
Since 1 July heating degree days 7753 6732  
Cooling Degree Days 0 0  
Month to date cooling degree days 0 0  
Year to date cooling degree days 0 0  
Moisture  
Dew Point 24 °F    
Average Humidity 78    
Maximum Humidity 96    
Minimum Humidity 60    
Precipitation  
Precipitation 0.28 in 0.06 in 0.62 in (1991)
Month to date precipitation 0.90 1.60  
Year to date precipitation 3.43 4.58  
Snow  
Snow 1.30 in 0.30 in 4.00 in (1948)
Month to date snowfall 7.3 11.0  
Since 1 July snowfall 62.8 77.1  
Snow Depth 12.00 in    
Sea Level Pressure  
Sea Level Pressure 29.90 in    
Wind  
Wind Speed 12 mph (South)    
Max Wind Speed 20 mph    
Max Gust Speed 25 mph    
Visibility 6 miles    
Events Rain , Snow    
T = Trace of Precipitation, MM = Missing Value Source: NWS Daily Summary

Daily Weather History Graph

Daily Weather History Graph

Search for Another Location

Airport or City:

Trip Planner

Search our weather history database for the weather conditions in past years. The results will help you decide how hot, cold, wet, or windy it might be!

Date:

Astronomy

Mar. 27, 2014 Rise Set
Actual Time 7:24 AM EDT 7:55 PM EDT
Civil Twilight 6:54 AM EDT 8:25 PM EDT
Nautical Twilight 6:19 AM EDT 9:00 PM EDT
Astronomical Twilight 5:43 AM EDT 9:36 PM EDT
Moon 5:23 AM EDT (3/27) 4:34 PM EDT (3/27)
Length of Visible Light 13h 30m
Length of Day
12h 31m
Waning Crescent, 13% of the Moon is Illuminated
Mar 27
Waning Crescent
Mar 30
New
Apr 7
First Quarter
Apr 15
Full
Apr 22
Last Quarter

Hourly Weather History & Observations

Time (EDT) Temp. Windchill Dew Point Humidity Pressure Visibility Wind Dir Wind Speed Gust Speed Precip Events Conditions
12:54 AM 24.1 °F 15.2 °F 12.9 °F 62% 30.14 in 10.0 mi South 8.1 mph - N/A   Overcast
1:54 AM 25.0 °F 16.3 °F 12.9 °F 60% 30.13 in 10.0 mi South 8.1 mph - N/A   Overcast
2:54 AM 25.0 °F 15.5 °F 14.0 °F 63% 30.11 in 10.0 mi South 9.2 mph - N/A   Overcast
3:10 AM 25.0 °F 13.1 °F 15.1 °F 66% 30.07 in 2.5 mi South 13.8 mph 19.6 mph 0.00 in Snow Light Snow
3:18 AM 24.1 °F 14.4 °F 17.1 °F 75% 30.07 in 1.2 mi South 9.2 mph 19.6 mph 0.00 in Snow Light Snow
3:22 AM 24.1 °F 14.4 °F 18.0 °F 77% 30.07 in 3.0 mi South 9.2 mph - 0.00 in Snow Light Snow
3:54 AM 25.0 °F 16.3 °F 18.0 °F 75% 30.09 in 5.0 mi South 8.1 mph - 0.00 in Snow Light Snow
4:15 AM 25.0 °F 13.6 °F 19.0 °F 78% 30.05 in 2.5 mi South 12.7 mph - 0.00 in Snow Light Snow
4:24 AM 24.1 °F 13.7 °F 19.0 °F 81% 30.04 in 1.0 mi South 10.4 mph - 0.00 in Snow Light Snow
4:29 AM 24.1 °F 12.5 °F 19.9 °F 84% 30.04 in 0.8 mi SSE 12.7 mph - 0.01 in Snow Light Snow
4:44 AM 24.1 °F 13.1 °F 21.0 °F 88% 30.03 in 1.0 mi South 11.5 mph - 0.01 in Snow Light Snow
4:54 AM 24.1 °F 13.7 °F 21.0 °F 88% 30.06 in 2.5 mi SSE 10.4 mph - 0.03 in Snow Light Snow
5:11 AM 24.1 °F 13.7 °F 21.0 °F 88% 30.01 in 2.5 mi SSE 10.4 mph - 0.00 in Snow Light Snow
5:36 AM 25.0 °F 14.8 °F 21.9 °F 88% 30.00 in 3.0 mi South 10.4 mph - 0.01 in Snow Light Snow
5:54 AM 25.0 °F 13.6 °F 21.9 °F 88% 30.02 in 3.0 mi South 12.7 mph - 0.01 in Snow Light Snow
6:17 AM 26.1 °F 15.0 °F 21.9 °F 84% 29.98 in 2.0 mi South 12.7 mph - 0.00 in Snow Light Snow
6:33 AM 26.1 °F 15.6 °F 21.9 °F 84% 29.97 in 1.8 mi South 11.5 mph - 0.00 in Snow Light Snow
6:54 AM 26.1 °F 14.5 °F 23.0 °F 88% 30.00 in 1.0 mi South 13.8 mph - 0.01 in Snow Light Snow
7:01 AM 26.1 °F 15.6 °F 23.0 °F 88% 29.96 in 0.8 mi South 11.5 mph - 0.02 in Snow Light Snow
7:06 AM 26.1 °F 15.0 °F 23.0 °F 88% 29.96 in 1.0 mi South 12.7 mph - 0.02 in Snow Light Snow
7:14 AM 26.1 °F 16.2 °F 23.0 °F 88% 29.96 in 3.0 mi South 10.4 mph - 0.02 in Snow Light Snow
7:27 AM 26.1 °F 15.6 °F 23.0 °F 88% 29.96 in 8.0 mi South 11.5 mph - 0.02 in   Overcast
7:54 AM 27.0 °F 16.7 °F 23.0 °F 85% 29.99 in 9.0 mi South 11.5 mph - 0.02 in   Overcast
8:54 AM 28.0 °F 17.0 °F 21.0 °F 75% 29.96 in 9.0 mi South 13.8 mph - N/A   Overcast
9:54 AM 28.9 °F 17.3 °F 19.9 °F 69% 29.93 in 10.0 mi South 16.1 mph 23.0 mph N/A   Overcast
10:54 AM 30.0 °F 20.0 °F 21.0 °F 69% 29.91 in 7.0 mi South 12.7 mph - 0.01 in   Overcast
11:54 AM 34.0 °F 23.8 °F 23.0 °F 64% 29.89 in 10.0 mi SSW 16.1 mph 23.0 mph 0.00 in   Overcast
12:46 PM 35.1 °F 26.4 °F 27.0 °F 72% 29.84 in 10.0 mi SSW 12.7 mph 23.0 mph N/A   Overcast
12:54 PM 35.1 °F 24.5 °F 27.0 °F 72% 29.87 in 10.0 mi SSW 18.4 mph 23.0 mph N/A   Overcast
1:24 PM 35.1 °F 25.9 °F 28.0 °F 76% 29.83 in 10.0 mi South 13.8 mph 23.0 mph N/A   Mostly Cloudy
1:54 PM 35.1 °F 25.2 °F 28.9 °F 78% 29.84 in 10.0 mi South 16.1 mph - N/A   Overcast
2:54 PM 35.1 °F 26.4 °F 30.0 °F 82% 29.83 in 10.0 mi SSW 12.7 mph - N/A   Overcast
3:54 PM 35.1 °F 25.9 °F 30.0 °F 82% 29.81 in 10.0 mi South 13.8 mph - N/A   Overcast
4:54 PM 35.1 °F 25.9 °F 30.0 °F 82% 29.78 in 10.0 mi South 13.8 mph - N/A   Overcast
5:54 PM 34.0 °F 24.2 °F 30.9 °F 89% 29.77 in 8.0 mi South 15.0 mph - N/A   Overcast
6:54 PM 34.0 °F 25.0 °F 30.9 °F 89% 29.76 in 7.0 mi South 12.7 mph - N/A   Overcast
7:17 PM 34.0 °F 25.0 °F 30.9 °F 89% 29.72 in 7.0 mi South 12.7 mph - N/A   Overcast
7:54 PM 34.0 °F 26.0 °F 30.9 °F 89% 29.73 in 7.0 mi South 10.4 mph - N/A   Overcast
8:18 PM 34.0 °F 26.0 °F 30.9 °F 89% 29.69 in 8.0 mi South 10.4 mph - N/A   Overcast
8:54 PM 34.0 °F 26.6 °F 30.9 °F 89% 29.71 in 2.0 mi SSE 9.2 mph - 0.02 in Snow Light Snow
9:07 PM 33.1 °F 25.5 °F 30.9 °F 92% 29.68 in 1.2 mi SSE 9.2 mph - 0.02 in Snow Light Snow
9:33 PM 33.1 °F 25.5 °F 32.0 °F 96% 29.67 in 1.5 mi SE 9.2 mph - 0.06 in Snow Light Snow
9:47 PM 33.1 °F 26.1 °F 32.0 °F 96% 29.66 in 2.0 mi SE 8.1 mph - 0.07 in Snow Light Snow
9:54 PM 33.1 °F 24.9 °F 32.0 °F 96% 29.68 in 4.0 mi SE 10.4 mph - 0.07 in   Overcast
10:54 PM 33.1 °F 26.1 °F 32.0 °F 96% 29.64 in 4.0 mi SE 8.1 mph - 0.00 in   Overcast
11:54 PM 34.0 °F 28.8 °F 33.1 °F 96% 29.63 in 2.5 mi SSE 5.8 mph - 0.00 in Rain Light Rain